Location: Diebersbach
(48.5163°N, 8.0558°E)
Time: 13:15:30
(UTC+00:00)

Cosmos 2263 - Pass Details

Date: 20 June 2021
Orbit: 832 x 865 km, 70.9° (Epoch: 05 August)

Event Time Altitude Azimuth Distance (km) Brightness Sun altitude
Rises 00:40:50 0° 329° (NNW) 3,426 8.0 -16.3°
Reaches altitude 10° 00:43:20 10° 326° (NW) 2,481 7.2 -16.2°
Maximum altitude 00:48:55 60° 248° (WSW) 962 4.3 -15.9°
Enters shadow 00:52:36 21° 175° (S) 1,789 5.4 -15.7°
